KUIPER-00135

基本信息
目录编号:
65777
目录名称:
KUIPER-00163
国际标识:
2025-217R
轨道中心:
EARTH
卫星名称:
KUIPER-00135
卫星全名:
KUIPER-00135
卫星状态:
在轨 (已飞行25 天)
发射日期:
2025-09-25 UTC
国别 :
美国 (US)
星等 :
--
轨道信息
数据来源 国际轨道数据
星历时间: 2025-10-20T15:29:58+0800
9小时前
查看轨道信息
半长轴: 6838.392km
偏心率: 0.000737
轨道倾角: 51.862°
近地点辐角 191.911°
升交点赤经 322.906°
平近点角 168.170°
近地点: 455.217km
远地点: 465.297km
周期: 93.797分钟
每日圈数: 15.352242
详细信息
使用方式:
暂无
2D轨道图
3D轨道图
轨道高度分析图
轨道倾角分析图
轨道综合分析图
查看轨道综合分析图